Pittsfield, IL

1:13 PM CDT on March 30, 2017 (GMT -0500)
Pittsfield Penstone Municipal

Weather History for KPPQ - January, 2009

Change the Weather History Date:

Saturday, January 24, 2009

  Actual Average (KUIN) Record (KUIN)
Temperature  
Mean Temperature 10 °F -  
Max Temperature 17 °F 36 °F 73 °F (1950)
Min Temperature 3 °F 19 °F -10 °F (1963)
Degree Days  
Heating Degree Days 55    
Moisture  
Dew Point -1 °F    
Average Humidity 62    
Maximum Humidity 85    
Minimum Humidity 35    
Precipitation  
Precipitation 0.00 in - - ()
Sea Level Pressure  
Sea Level Pressure 30.52 in    
Wind  
Wind Speed 12 mph (NW)    
Max Wind Speed 17 mph    
Max Gust Speed 24 mph    
Visibility 10 miles    
Events      
Averages and records for this station are not official NWS values.
T = Trace of Precipitation, MM = Missing Value Source: NWS Daily Summary

Daily Weather History Graph

Daily Weather History Graph

Search for Another Location

Airport or City:

Trip Planner

Search our weather history database for the weather conditions in past years. The results will help you decide how hot, cold, wet, or windy it might be!

Date:

Astronomy

Jan. 24, 2009 Rise Set
Actual Time 7:17 AM CST 5:13 PM CST
Civil Twilight 6:48 AM CST 5:42 PM CST
Nautical Twilight 6:15 AM CST 6:15 PM CST
Astronomical Twilight 5:43 AM CST 6:47 PM CST
Moon 6:23 AM CST (1/24) 3:44 PM CST (1/24)
Length of Visible Light 10h 54m
Length of Day
9h 56m
Waning Crescent, 2% of the Moon is Illuminated
Jan 24
Waning Crescent
Jan 26
New
Feb 2
First Quarter
Feb 9
Full
Feb 16
Last Quarter

Hourly Weather History & Observations

Time (CST) Temp. Windchill Dew Point Humidity Pressure Visibility Wind Dir Wind Speed Gust Speed Precip Events Conditions
12:06 AM 17.6 °F 2.7 °F 8.6 °F 68% 30.47 in 10.0 mi NW 16.1 mph 21.9 mph N/A   Unknown
12:27 AM 15.8 °F -0.2 °F 6.8 °F 68% 30.47 in 10.0 mi NW 17.3 mph 23.0 mph N/A   Unknown
12:46 AM 15.8 °F 0.3 °F 6.8 °F 68% 30.48 in 10.0 mi NNW 16.1 mph 20.7 mph N/A   Unknown
1:06 AM 15.8 °F 0.9 °F 6.8 °F 68% 30.48 in 10.0 mi NW 15.0 mph 24.2 mph N/A   Unknown
1:26 AM 14.0 °F -0.2 °F 6.8 °F 73% 30.49 in 10.0 mi NNW 12.7 mph 21.9 mph N/A   Unknown
1:46 AM 12.2 °F -4.3 °F 5.0 °F 73% 30.50 in 10.0 mi NNW 16.1 mph 24.2 mph N/A   Unknown
2:06 AM 12.2 °F -3.7 °F 3.2 °F 67% 30.50 in 10.0 mi NNW 15.0 mph 20.7 mph N/A   Unknown
2:26 AM 10.4 °F -4.8 °F 3.2 °F 73% 30.50 in 10.0 mi NNW 12.7 mph - N/A   Unknown
2:46 AM 10.4 °F -3.3 °F 3.2 °F 73% 30.51 in 10.0 mi NNW 10.4 mph - N/A   Unknown
3:06 AM 8.6 °F -8.3 °F 3.2 °F 79% 30.51 in 10.0 mi NNW 15.0 mph - N/A   Unknown
3:26 AM 8.6 °F -8.3 °F 1.4 °F 73% 30.51 in 10.0 mi NNW 15.0 mph - N/A   Unknown
4:06 AM 8.6 °F -8.3 °F 1.4 °F 73% 30.52 in 10.0 mi NW 15.0 mph - N/A   Unknown
4:26 AM 6.8 °F -9.3 °F 1.4 °F 79% 30.52 in 10.0 mi NNW 12.7 mph - N/A   Unknown
4:46 AM 6.8 °F -9.3 °F 1.4 °F 79% 30.52 in 10.0 mi NNW 12.7 mph - N/A   Unknown
5:06 AM 6.8 °F -10.7 °F -0.4 °F 72% 30.53 in 10.0 mi NNW 15.0 mph 20.7 mph N/A   Unknown
5:26 AM 5.0 °F -10.8 °F -0.4 °F 78% 30.53 in 10.0 mi NNW 11.5 mph - N/A   Unknown
5:46 AM 3.2 °F -13.1 °F -0.4 °F 85% 30.53 in 10.0 mi NNW 11.5 mph - N/A   Unknown
6:06 AM 3.2 °F -12.2 °F -0.4 °F 85% 30.53 in 10.0 mi NNW 10.4 mph - N/A   Unknown
6:26 AM 3.2 °F -13.1 °F -2.2 °F 78% 30.54 in 10.0 mi NNW 11.5 mph - N/A   Unknown
7:06 AM 3.2 °F -10.3 °F -2.2 °F 78% 30.56 in 10.0 mi NNW 8.1 mph - N/A   Unknown
7:26 AM 3.2 °F -11.3 °F -2.2 °F 78% 30.57 in 10.0 mi NNW 9.2 mph - N/A   Unknown
7:46 AM 3.2 °F -13.9 °F -2.2 °F 78% 30.57 in 10.0 mi NNW 12.7 mph - N/A   Unknown
8:06 AM 3.2 °F -13.1 °F -2.2 °F 78% 30.57 in 10.0 mi NNW 11.5 mph - N/A   Unknown
8:26 AM 3.2 °F -11.3 °F -2.2 °F 78% 30.58 in 10.0 mi NNW 9.2 mph - N/A   Unknown
8:46 AM 3.2 °F -12.2 °F -2.2 °F 78% 30.58 in 10.0 mi NW 10.4 mph - N/A   Unknown
9:06 AM 5.0 °F -8.1 °F -2.2 °F 72% 30.58 in 10.0 mi NW 8.1 mph - N/A   Unknown
9:26 AM 5.0 °F -9.1 °F -2.2 °F 72% 30.58 in 10.0 mi NW 9.2 mph - N/A   Unknown
9:46 AM 6.8 °F -4.8 °F -2.2 °F 67% 30.58 in 10.0 mi NNW 6.9 mph - N/A   Unknown
10:06 AM 6.8 °F -4.8 °F -2.2 °F 67% 30.58 in 10.0 mi NW 6.9 mph - N/A   Unknown
10:26 AM 8.6 °F -2.6 °F -2.2 °F 62% 30.58 in 10.0 mi WNW 6.9 mph - N/A   Unknown
10:46 AM 8.6 °F -4.7 °F -2.2 °F 62% 30.57 in 10.0 mi NW 9.2 mph - N/A   Unknown
11:06 AM 10.4 °F 0.8 °F -2.2 °F 57% 30.58 in 10.0 mi NW 5.8 mph - N/A   Unknown
11:26 AM 10.4 °F -0.4 °F -2.2 °F 57% 30.56 in 10.0 mi NW 6.9 mph - N/A   Unknown
11:46 AM 12.2 °F 1.7 °F -2.2 °F 53% 30.56 in 10.0 mi WNW 6.9 mph - N/A   Unknown
12:07 PM 12.2 °F -0.2 °F -2.2 °F 53% 30.54 in 10.0 mi NW 9.2 mph - N/A   Unknown
12:26 PM 14.0 °F 3.9 °F -4.0 °F 45% 30.53 in 10.0 mi NNW 6.9 mph - N/A   Unknown
1:06 PM 15.8 °F 8.6 °F -4.0 °F 41% 30.52 in 10.0 mi NW 4.6 mph - N/A   Unknown
1:26 PM 15.8 °F 5.1 °F -4.0 °F 41% 30.51 in 10.0 mi NW 8.1 mph - N/A   Unknown
2:06 PM 17.6 °F 9.3 °F -4.0 °F 38% 30.50 in 10.0 mi NW 5.8 mph - N/A   Unknown
2:26 PM 17.6 °F 6.4 °F -4.0 °F 38% 30.50 in 10.0 mi NW 9.2 mph - N/A   Unknown
2:46 PM 17.6 °F 9.3 °F -4.0 °F 38% 30.50 in 10.0 mi NW 5.8 mph - N/A   Unknown
3:06 PM 17.6 °F 6.4 °F -4.0 °F 38% 30.50 in 10.0 mi NW 9.2 mph - N/A   Unknown
3:26 PM 17.6 °F 9.3 °F -5.8 °F 35% 30.50 in 10.0 mi NW 5.8 mph - N/A   Unknown
3:46 PM 17.6 °F 10.7 °F -4.0 °F 38% 30.50 in 10.0 mi NW 4.6 mph - N/A   Unknown
4:06 PM 17.6 °F 9.3 °F -4.0 °F 38% 30.49 in 10.0 mi NNW 5.8 mph - N/A   Unknown
4:26 PM 17.6 °F 9.3 °F -5.8 °F 35% 30.49 in 10.0 mi West 5.8 mph - N/A   Unknown
5:06 PM 17.6 °F 10.7 °F -2.2 °F 42% 30.48 in 10.0 mi NNW 4.6 mph - N/A   Unknown
5:26 PM 15.8 °F 5.1 °F -2.2 °F 45% 30.47 in 10.0 mi North 8.1 mph - N/A   Unknown
5:46 PM 15.8 °F 7.2 °F -2.2 °F 45% 30.47 in 10.0 mi North 5.8 mph - N/A   Unknown
6:06 PM 14.0 °F 8.2 °F -2.2 °F 49% 30.47 in 10.0 mi North 3.5 mph - N/A   Unknown
6:26 PM 12.2 °F 2.9 °F -2.2 °F 53% 30.47 in 10.0 mi North 5.8 mph - N/A   Unknown
6:46 PM 10.4 °F 2.2 °F -2.2 °F 57% 30.47 in 10.0 mi North 4.6 mph - N/A   Unknown
7:06 PM 10.4 °F 4.0 °F -2.2 °F 57% 30.46 in 10.0 mi North 3.5 mph - N/A   Unknown
7:26 PM 10.4 °F 4.0 °F -2.2 °F 57% 30.46 in 10.0 mi NNW 3.5 mph - N/A   Unknown
7:46 PM 10.4 °F 4.0 °F -2.2 °F 57% 30.45 in 10.0 mi NNW 3.5 mph - N/A   Unknown
8:06 PM 8.6 °F 0.1 °F -2.2 °F 62% 30.45 in 10.0 mi North 4.6 mph - N/A   Unknown
8:26 PM 8.6 °F -1.3 °F -2.2 °F 62% 30.45 in 10.0 mi North 5.8 mph - N/A   Unknown
8:46 PM 8.6 °F 0.1 °F -2.2 °F 62% 30.45 in 10.0 mi North 4.6 mph - N/A   Unknown
9:06 PM 8.6 °F 0.1 °F -2.2 °F 62% 30.46 in 10.0 mi NNW 4.6 mph - N/A   Unknown
9:26 PM 8.6 °F -2.6 °F -0.4 °F 67% 30.46 in 10.0 mi North 6.9 mph - N/A   Unknown
9:46 PM 8.6 °F 2.0 °F -2.2 °F 62% 30.44 in 10.0 mi NNE 3.5 mph - N/A   Unknown
10:06 PM 8.6 °F 0.1 °F -2.2 °F 62% 30.43 in 10.0 mi NE 4.6 mph - N/A   Unknown
10:26 PM 8.6 °F 2.0 °F -2.2 °F 62% 30.43 in 10.0 mi North 3.5 mph - N/A   Unknown
10:46 PM 8.6 °F 2.0 °F -2.2 °F 62% 30.43 in 10.0 mi NE 3.5 mph - N/A   Unknown
11:06 PM 6.8 °F -0.1 °F -0.4 °F 72% 30.45 in 10.0 mi North 3.5 mph - N/A   Unknown
11:26 PM 8.6 °F 2.0 °F -0.4 °F 67% 30.44 in 10.0 mi North 3.5 mph - N/A   Unknown
11:46 PM 8.6 °F 2.0 °F -0.4 °F 67% 30.44 in 10.0 mi NNE 3.5 mph - N/A   Unknown